Theta_e
289 289 287 287 286 286 286 285 284 282 283 282 281 279 278 277 277 277 278 279 280 280 281 280 281 284 283 284 284 284 283 283 280 280 272 275 279 283 284 283 280 280 279
286 286 286 285 285 285 284 283 283 282 281 281 280 279 278 278 278 279 278 278 278 278 278 279 280 283 283 283 283 282 282 283 281 280 282 280 281 280 276 273 280 281 279
284 284 283 283 283 282 281 281 281 281 281 281 280 280 280 279 278 278 278 278 277 278 278 278 279 281 282 282 282 282 282 283 282 281 280 282 282 281 278 275 276 277 281
282 282 281 281 281 280 280 280 281 281 280 280 280 280 280 280 280 279 279 278 278 279 280 281 282 282 281 282 282 282 282 282 282 281 281 281 281 281 278 275 276 276 278
279 280 279 280 280 280 280 280 280 279 280 279 279 279 280 280 280 280 280 279 279 279 280 281 281 282 284 283 282 282 282 281 280 280 279 280 280 279 277 272 273 274 275
276 276 277 278 279 278 278 277 278 278 278 278 278 279 279 280 283 284 282 280 280 279 279 280 281 282 283 285 286 285 283 281 279 279 278 278 279 279 274 271 269 269 271
276 276 276 276 277 277 277 277 277 276 276 277 276 277 277 277 283 284 284 281 280 279 280 281 281 282 282 282 284 286 286 285 284 280 278 277 274 276 274 271 269 268 270
276 276 276 276 276 276 276 276 275 276 276 275 275 276 277 278 282 283 284 282 281 281 281 281 281 281 281 281 281 281 281 281 283 283 280 279 277 276 275 274 271 268 268
275 275 276 276 275 275 275 274 274 275 275 275 276 276 276 277 281 282 282 281 281 281 282 281 281 281 282 284 280 279 279 279 282 284 285 285 285 284 282 274 275 276 274
275 275 275 275 275 274 275 274 275 275 275 276 277 277 277 277 280 282 283 281 280 280 281 281 282 282 283 284 281 279 277 278 278 278 276 280 283 282 286 283 279 277 277
275 275 274 274 274 274 274 274 274 273 274 272 273 274 274 276 276 281 282 281 280 280 280 280 280 283 284 284 285 280 279 280 280 279 276 275 275 275 275 275 280 280 279
273 273 272 272 273 273 273 272 272 272 272 272 272 273 274 274 276 278 281 282 282 280 279 279 279 283 283 284 284 285 285 284 281 278 278 276 273 273 275 275 276 276 279
271 271 270 270 272 272 270 270 270 269 270 270 272 272 272 275 274 280 281 282 282 279 279 279 282 282 281 278 280 282 281 280 280 278 277 277 275 276 274 272 273 273 276
270 269 269 269 269 269 272 271 270 268 269 270 270 269 268 271 272 273 274 274 277 276 277 273 275 276 276 275 271 274 273 274 275 274 273 273 274 272 273 273 272 271 273
269 269 269 270 269 269 270 269 270 270 270 268 268 268 266 265 270 275 274 271 270 274 267 266 266 266 267 267 267 268 268 268 269 268 270 270 271 271 271 268 272 270 273
268 269 269 269 268 268 268 268 272 275 276 276 277 271 271 275 277 277 278 279 280 280 266 264 264 265 265 265 264 265 265 266 267 268 265 265 266 266 267 267 269 269 269
266 267 267 267 266 266 266 266 266 268 273 275 277 278 279 278 279 279 280 280 280 279 269 263 264 265 264 264 263 262 261 262 260 261 261 261 261 262 264 263 265 267 265
265 266 265 266 264 263 263 264 264 263 262 263 268 272 273 275 276 277 278 278 269 270 264 264 265 264 264 264 263 262 262 260 260 261 258 258 259 259 257 259 261 261 260
264 264 264 265 264 264 264 263 263 262 261 261 260 265 265 271 273 274 276 264 263 261 260 260 261 261 261 261 261 260 259 259 260 257 256 257 258 256 256 257 256 258 259
260 262 263 261 261 260 260 259 258 257 258 259 259 260 257 256 256 256 255 255 254 256 255 256 257 254 255 256 255 255 253 253 256 257 258 258 258 258 260 259 258 259 258
260 258 260 259 259 259 258 258 259 257 258 257 259 259 266 259 259 257 256 255 256 257 257 255 255 254 254 254 252 252 253 254 254 255 256 257 257 255 258 259 260 258 257
255 256 255 256 257 257 256 255 253 253 254 255 257 255 268 260 255 256 256 257 257 256 256 256 255 255 255 254 254 253 254 254 252 253 254 254 254 254 253 253 255 256 255
250 250 250 250 251 252 250 251 252 252 253 253 254 255 252 254 254 255 256 256 254 255 254 251 253 254 253 254 255 256 256 256 255 255 255 254 253 254 254 254 255 255 257
248 249 252 253 249 249 251 252 252 253 253 253 253 253 255 255 254 255 255 255 254 254 253 253 253 254 253 253 252 252 254 254 255 256 257 257 257 256 255 253 253 252 253
250 251 251 253 252 253 252 253 253 253 253 254 255 255 256 255 255 254 254 254 254 253 254 253 253 254 255 255 254 252 253 260 259 258 258 258 257 256 255 256 256 256 255
251 251 253 253 253 252 253 254 254 254 255 255 256 256 256 256 256 255 254 253 253 253 253 254 254 254 254 254 254 256 256 261 258 258 258 257 257 256 256 255 257 257 257
Wind_Speed
10 11 12 10 10 9 9 9 9 8 9 9 9 8 7 7 6 5 5 6 6 5 3 5 5 4 3 3 2 2 2 3 5 3 1 2 2 1 2 2 3 4 4
10 10 9 11 11 10 8 8 9 9 6 8 9 8 7 6 6 6 6 5 6 6 5 4 5 4 5 5 4 5 5 5 4 7 3 2 5 3 1 3 4 2 3
9 12 11 10 11 10 10 9 8 9 8 7 7 8 8 7 7 5 5 5 5 5 6 6 6 6 7 5 6 5 5 5 5 5 4 1 3 0 2 2 4 3 2
9 10 11 9 10 9 9 9 9 8 9 8 7 7 7 7 6 6 6 6 6 6 7 7 7 8 7 7 7 7 6 6 6 5 4 3 3 1 1 1 4 2 2
9 9 8 9 9 9 9 8 8 7 7 6 6 5 6 6 5 6 6 6 7 6 7 7 7 8 12 10 5 6 7 6 5 5 5 4 4 2 2 1 2 2 3
8 8 7 8 8 7 7 6 6 6 7 7 6 7 7 5 11 14 10 6 6 7 7 7 7 8 12 16 17 16 11 8 7 5 6 8 9 6 3 2 1 2 2
8 7 6 5 6 6 7 6 6 6 6 6 6 6 5 5 13 13 14 7 7 6 7 7 6 6 8 8 12 16 17 18 14 7 8 7 3 4 4 2 3 2 3
6 7 6 5 6 5 5 5 4 4 5 5 5 6 5 5 13 14 15 7 6 8 8 8 7 6 7 7 6 6 6 5 6 7 9 8 5 4 5 4 4 2 2
6 6 5 4 6 6 4 4 3 3 4 4 4 5 6 6 13 14 12 5 6 6 7 8 8 8 11 14 7 8 7 7 8 14 16 16 16 16 11 3 3 4 4
4 5 5 4 4 4 5 5 3 3 3 3 5 5 6 5 10 12 11 5 7 5 6 7 13 10 14 17 9 7 9 7 7 7 4 10 12 10 17 10 5 6 6
5 4 4 3 4 3 3 3 3 3 3 3 3 1 3 4 4 10 11 4 4 4 5 5 5 14 16 17 17 9 10 7 11 9 6 4 4 4 4 3 5 7 7
4 4 4 4 3 3 4 3 3 2 3 3 2 2 2 3 7 9 11 12 9 4 4 3 3 11 12 13 11 11 15 15 7 7 6 6 4 4 5 5 6 5 5
4 4 4 3 3 3 3 3 2 2 2 1 2 1 1 0 1 6 3 4 3 2 1 3 6 5 2 3 5 6 4 2 4 4 5 4 4 4 2 0 1 3 4
3 3 3 3 2 2 2 2 2 2 2 2 1 1 1 0 0 0 1 2 2 3 2 2 1 1 3 4 3 4 2 2 2 2 2 1 0 1 2 3 3 2 2
3 2 2 2 2 2 1 2 2 3 3 3 2 2 3 2 3 4 3 2 2 3 4 2 1 1 0 2 2 2 2 1 2 2 2 2 2 1 3 2 3 2 5
1 1 2 2 2 2 2 1 2 4 5 5 7 6 3 8 5 6 7 9 10 10 2 3 2 2 2 2 2 2 2 2 1 1 1 2 2 2 2 1 1 2 3
2 1 0 1 1 1 2 2 2 3 4 4 6 7 8 7 10 9 9 11 12 9 2 2 3 3 3 3 3 3 2 2 0 1 2 3 3 2 2 2 1 1 2
2 2 1 1 1 1 0 1 1 2 1 3 5 3 5 8 8 9 10 10 3 4 2 3 3 4 3 4 3 3 3 3 2 3 2 2 3 3 3 3 3 3 3
4 3 3 3 3 4 3 3 3 3 3 3 1 3 4 8 9 9 11 1 3 3 3 2 3 3 4 4 4 4 4 3 3 3 3 3 4 3 3 3 3 4 3
4 5 4 3 3 3 3 3 2 3 2 2 3 3 2 1 1 2 1 1 2 3 3 4 4 3 3 4 4 3 3 3 3 4 5 4 4 4 5 4 4 4 4
2 2 3 2 2 2 2 3 3 3 4 3 5 3 9 5 5 4 4 4 4 4 4 4 4 4 4 4 4 3 4 4 4 4 4 4 4 4 6 5 4 4 3
2 2 3 3 2 3 3 3 3 4 5 5 5 4 13 2 3 4 4 5 4 5 4 4 4 4 5 4 5 4 4 4 4 4 4 4 4 4 3 3 4 4 4
2 2 2 2 3 3 3 3 4 5 5 5 5 4 3 4 4 4 5 4 4 4 4 3 4 4 4 4 4 5 5 5 5 5 5 4 4 4 5 5 5 4 5
2 3 4 4 3 4 4 5 5 6 6 5 5 4 5 4 4 6 5 5 4 5 4 4 5 6 4 5 4 4 5 4 4 5 7 4 5 5 4 3 4 6 4
4 5 5 5 5 5 4 5 5 5 5 5 6 5 5 5 5 5 5 5 5 4 5 5 4 6 8 9 7 7 6 9 6 6 4 5 6 6 4 4 4 4 4
5 6 6 5 5 5 6 6 7 6 7 7 7 7 7 6 6 5 4 5 5 5 5 4 5 9 8 7 8 8 8 9 7 8 6 5 5 4 4 4 7 5 4
Wind_Direction
165 161 153 148 139 139 147 147 146 136 145 149 153 148 153 154 157 157 164 166 174 177 168 172 184 177 183 185 171 176 194 212 250 260 249 278 268 286 291 252 264 261 265
140 137 136 134 133 133 131 128 133 135 129 142 142 144 148 152 152 160 164 167 172 182 187 177 199 193 204 197 194 206 212 218 239 249 235 224 236 218 319 308 281 242 240
130 127 127 130 129 127 123 117 114 121 118 119 131 144 156 163 165 167 171 183 189 193 194 199 202 202 214 206 205 206 205 217 227 245 254 197 261 256 311 303 282 278 226
112 118 119 120 121 121 121 125 127 131 133 137 147 150 156 162 172 171 181 191 194 196 201 206 205 208 210 202 206 209 209 215 224 230 239 248 225 162 197 318 300 297 303
99 100 102 105 105 112 120 124 128 133 133 132 138 149 160 170 175 181 185 193 200 203 208 211 212 212 217 214 210 204 204 214 216 222 239 235 236 213 231 280 251 300 297
73 85 100 108 111 109 108 116 127 132 134 142 157 169 175 183 199 210 196 198 198 205 214 219 215 216 231 233 231 220 214 207 218 211 244 243 246 237 177 208 193 21 320
93 92 79 85 103 111 122 139 147 149 134 153 159 163 180 175 210 220 225 193 201 202 212 217 220 216 214 223 244 243 230 223 220 209 230 222 203 207 172 210 209 187 221
93 103 102 111 114 112 124 142 134 130 148 156 170 175 176 193 221 231 230 225 202 204 207 209 217 215 206 209 217 229 242 239 247 224 215 220 209 214 194 190 191 206 312
102 106 102 125 132 124 134 132 111 138 163 163 175 182 198 211 225 232 232 223 223 215 204 208 210 210 212 222 214 223 233 228 236 249 249 240 231 239 233 145 233 258 286
104 105 119 117 121 139 143 141 131 158 154 168 180 186 193 203 221 226 225 209 222 216 210 214 216 217 223 229 226 210 233 227 211 221 242 259 267 258 250 218 194 218 245
92 98 103 109 101 107 116 120 138 155 129 126 140 149 199 205 227 239 242 209 205 204 207 206 207 235 235 234 232 211 225 223 227 223 226 220 220 224 229 210 200 215 228
103 106 104 96 96 116 122 101 95 122 145 152 149 211 224 222 223 236 231 236 224 203 201 187 202 233 246 255 255 251 242 242 215 221 220 229 224 213 224 218 214 219 235
94 89 86 71 65 79 95 108 117 117 119 141 187 178 147 86 219 215 188 208 130 119 118 200 224 242 329 11 315 304 325 272 232 210 210 212 203 218 172 150 215 221 229
117 130 121 116 138 122 136 146 134 139 157 174 158 160 125 207 300 358 90 76 85 116 127 92 216 311 340 327 339 306 294 229 214 217 215 194 137 138 215 182 209 189 200
115 116 115 121 119 138 153 165 178 181 170 182 189 166 153 226 239 220 194 194 198 209 116 66 78 68 10 335 315 315 308 327 207 192 176 196 228 218 240 209 221 195 222
145 156 173 157 170 178 177 186 242 229 218 223 216 185 220 226 233 229 240 244 242 223 97 156 205 195 206 218 246 289 299 294 255 165 140 171 196 221 251 286 219 202 211
195 182 179 145 103 41 1 2 349 356 329 279 259 263 260 235 237 249 243 251 250 252 164 175 198 204 212 215 218 199 239 247 240 189 195 205 198 214 207 246 258 243 258
218 224 183 194 147 90 135 234 230 239 280 321 344 347 311 290 288 283 277 275 301 321 141 192 209 206 212 220 217 216 235 237 237 232 229 220 205 189 206 225 214 206 214
207 205 202 199 198 203 197 206 206 214 225 223 261 293 313 302 290 273 264 189 199 220 226 218 210 214 220 216 222 219 214 214 220 209 232 213 214 183 225 223 220 217 200
212 218 199 191 191 196 190 195 203 210 227 229 244 238 274 43 347 281 293 223 228 234 216 226 235 225 223 218 224 219 222 219 219 218 233 220 216 194 226 210 205 213 209
209 213 225 208 198 201 200 203 213 206 233 233 249 214 239 204 239 231 230 221 226 233 240 220 228 227 222 221 217 222 217 228 216 218 220 226 198 208 220 216 206 212 210
198 205 195 205 201 203 215 202 199 212 225 235 249 241 268 258 226 223 228 235 227 218 217 216 224 214 211 205 211 213 220 224 228 227 227 215 210 215 207 199 204 206 192
169 206 241 249 220 226 240 226 223 222 232 233 238 254 237 240 234 237 243 245 235 242 231 212 225 245 232 222 208 207 212 218 219 208 220 220 219 214 199 208 202 204 197
223 227 237 237 212 223 228 237 226 226 235 238 236 239 250 248 235 241 239 239 239 242 228 222 217 225 234 236 222 217 218 215 196 213 214 212 218 214 202 196 194 195 190
234 240 234 240 232 234 234 236 237 231 228 229 241 235 239 235 241 237 232 228 233 234 243 228 222 229 239 240 240 236 228 240 220 198 207 214 216 209 195 202 198 203 200
228 227 234 226 231 223 225 236 235 227 228 230 230 232 234 233 237 234 229 230 234 236 238 235 235 237 242 244 246 245 236 237 224 223 194 195 201 204 189 198 205 199 191